Total_Precipitation_Accumulation
1.98 1.87 1.39 0.82 0.66 0.50 0.44 0.48 0.47 0.39 0.43 0.53 0.57 0.59 0.64 0.65 0.65 0.68 0.71 0.68 0.68 0.81 1.10 1.21 1.30 1.61 1.88 2.02 2.18 2.33 2.46 2.57 2.84 3.05 3.04 2.93 2.78 2.53 2.40 2.36 2.25 2.16 2.11 2.19
1.73 1.30 0.78 0.59 0.59 0.57 0.54 0.55 0.52 0.43 0.39 0.52 0.57 0.58 0.54 0.53 0.63 0.73 0.72 0.74 0.77 0.80 0.97 1.10 1.18 1.35 1.57 1.79 2.01 2.23 2.35 2.47 2.49 2.59 2.84 2.99 3.04 2.87 2.59 2.41 2.29 2.19 2.12 2.15
1.29 0.80 0.61 0.71 0.68 0.67 0.57 0.49 0.45 0.45 0.46 0.53 0.56 0.62 0.51 0.50 0.56 0.63 0.67 0.71 0.72 0.76 0.85 0.95 1.08 1.30 1.42 1.56 1.79 2.08 2.24 2.37 2.41 2.46 2.75 2.99 3.16 2.99 2.66 2.32 2.15 2.13 2.13 2.16
1.13 0.70 0.67 0.78 0.65 0.56 0.55 0.33 0.33 0.38 0.55 0.65 0.59 0.81 0.57 0.52 0.55 0.60 0.66 0.65 0.65 0.69 0.73 0.78 0.90 1.09 1.23 1.38 1.55 1.72 1.93 2.10 2.31 2.41 2.50 2.57 2.70 2.71 2.45 2.32 2.21 2.21 2.20 2.18
1.08 0.75 0.76 0.79 0.55 0.46 0.46 0.30 0.35 0.38 0.52 0.62 0.49 0.71 0.62 0.42 0.48 0.59 0.68 0.67 0.66 0.70 0.72 0.73 0.86 1.05 1.12 1.21 1.44 1.58 1.67 1.86 2.10 2.26 2.33 2.48 2.49 2.52 2.58 2.54 2.42 2.31 2.25 2.20
0.81 0.66 0.77 0.67 0.50 0.47 0.48 0.46 0.51 0.51 0.72 0.79 0.39 0.54 0.60 0.45 0.52 0.54 0.54 0.59 0.65 0.71 0.77 0.83 0.94 1.03 1.06 1.13 1.29 1.49 1.50 1.59 1.77 2.05 2.27 2.33 2.29 2.34 2.39 2.38 2.33 2.29 2.26 2.22
1.03 0.78 0.66 0.60 0.70 0.62 0.60 0.78 1.09 1.14 1.05 0.59 0.27 0.43 0.60 0.45 0.46 0.49 0.49 0.52 0.58 0.68 0.72 0.81 0.93 0.92 0.97 1.07 1.18 1.33 1.42 1.50 1.60 1.78 1.99 2.17 2.27 2.28 2.30 2.32 2.28 2.18 2.07 1.97
1.01 1.05 0.66 0.57 0.69 0.71 0.57 0.63 0.83 0.82 0.51 0.34 0.27 0.42 0.52 0.43 0.38 0.34 0.35 0.41 0.50 0.58 0.60 0.64 0.77 0.85 0.92 1.02 1.08 1.10 1.16 1.22 1.30 1.39 1.54 1.76 2.02 2.14 2.07 2.07 2.04 1.99 1.91 1.88
0.67 0.68 0.42 0.37 0.40 0.47 0.61 0.58 0.45 0.70 0.51 0.43 0.35 0.37 0.38 0.30 0.30 0.30 0.32 0.40 0.50 0.59 0.62 0.62 0.69 0.75 0.80 0.93 1.04 1.01 1.00 1.05 1.14 1.18 1.27 1.41 1.64 1.80 1.84 1.87 1.81 1.72 1.68 1.72
0.44 0.51 0.36 0.33 0.41 0.43 0.44 0.45 0.57 0.97 0.85 0.59 0.36 0.34 0.48 0.38 0.31 0.33 0.39 0.43 0.52 0.64 0.63 0.60 0.64 0.70 0.72 0.80 0.93 0.94 0.94 0.97 1.10 1.15 1.18 1.26 1.37 1.47 1.63 1.71 1.60 1.54 1.51 1.53
0.35 0.50 0.44 0.40 0.44 0.38 0.34 0.47 0.56 0.68 0.66 0.68 0.45 0.46 0.52 0.45 0.39 0.39 0.41 0.47 0.57 0.62 0.65 0.66 0.68 0.71 0.76 0.80 0.85 0.86 0.91 0.95 1.06 1.10 1.07 1.08 1.15 1.20 1.29 1.38 1.42 1.37 1.37 1.35
0.28 0.44 0.44 0.31 0.21 0.21 0.30 0.35 0.47 0.78 0.60 0.49 0.51 0.54 0.44 0.39 0.38 0.38 0.40 0.44 0.51 0.52 0.59 0.64 0.64 0.66 0.75 0.79 0.79 0.76 0.80 0.86 0.97 1.01 0.96 0.96 1.01 1.08 1.12 1.15 1.24 1.25 1.25 1.25
0.44 0.62 0.63 0.47 0.41 0.39 0.43 0.32 0.35 0.59 0.78 0.59 0.58 0.59 0.41 0.32 0.32 0.35 0.39 0.43 0.42 0.41 0.43 0.49 0.53 0.54 0.58 0.61 0.63 0.70 0.70 0.68 0.73 0.78 0.76 0.76 0.79 0.86 0.95 1.00 1.02 1.07 1.11 1.15
0.69 0.67 0.56 0.53 0.49 0.58 0.54 0.31 0.30 0.74 1.00 0.53 0.38 0.44 0.38 0.35 0.39 0.40 0.42 0.41 0.36 0.34 0.35 0.41 0.49 0.45 0.48 0.52 0.54 0.61 0.60 0.57 0.63 0.65 0.64 0.65 0.68 0.70 0.77 0.83 0.84 0.86 0.90 0.97
0.60 0.60 0.34 0.34 0.38 0.55 0.50 0.33 0.31 0.51 0.50 0.52 0.34 0.33 0.38 0.41 0.49 0.48 0.45 0.38 0.30 0.28 0.30 0.35 0.45 0.48 0.47 0.51 0.53 0.54 0.58 0.62 0.66 0.68 0.68 0.66 0.66 0.66 0.69 0.75 0.77 0.75 0.76 0.76
0.54 0.59 0.41 0.38 0.35 0.45 0.39 0.23 0.22 0.25 0.26 0.29 0.25 0.33 0.35 0.38 0.43 0.46 0.45 0.36 0.27 0.25 0.26 0.29 0.37 0.52 0.48 0.52 0.60 0.60 0.64 0.72 0.74 0.75 0.72 0.70 0.66 0.64 0.62 0.63 0.65 0.66 0.68 0.67
0.57 0.71 0.85 0.64 0.33 0.42 0.42 0.28 0.26 0.26 0.26 0.27 0.34 0.35 0.29 0.35 0.42 0.43 0.38 0.28 0.24 0.23 0.24 0.27 0.33 0.48 0.55 0.57 0.66 0.73 0.75 0.81 0.80 0.80 0.74 0.69 0.66 0.63 0.62 0.59 0.60 0.63 0.67 0.69
0.44 0.69 1.06 0.89 0.56 0.61 0.43 0.30 0.29 0.28 0.28 0.26 0.28 0.25 0.25 0.30 0.34 0.32 0.27 0.25 0.22 0.20 0.20 0.24 0.29 0.36 0.47 0.50 0.56 0.66 0.73 0.84 0.85 0.83 0.81 0.78 0.78 0.79 0.82 0.81 0.83 0.84 0.81 0.84
0.22 0.58 0.96 0.87 0.65 0.37 0.22 0.18 0.27 0.34 0.33 0.25 0.21 0.18 0.16 0.18 0.25 0.30 0.25 0.24 0.24 0.22 0.21 0.21 0.25 0.27 0.33 0.41 0.45 0.53 0.66 0.83 0.96 1.00 1.00 1.02 1.04 1.09 1.13 1.15 1.15 1.15 1.16 1.15
0.18 0.41 0.86 0.83 0.70 0.37 0.23 0.11 0.13 0.24 0.40 0.20 0.15 0.15 0.14 0.15 0.26 0.34 0.30 0.26 0.25 0.24 0.23 0.22 0.23 0.25 0.29 0.39 0.46 0.58 0.76 0.94 1.08 1.13 1.15 1.17 1.23 1.29 1.27 1.25 1.21 1.14 1.12 1.14
0.31 0.53 0.75 0.70 0.68 0.37 0.23 0.12 0.10 0.35 0.48 0.21 0.17 0.18 0.18 0.23 0.30 0.27 0.25 0.27 0.27 0.28 0.31 0.33 0.34 0.37 0.40 0.45 0.56 0.72 0.85 0.98 1.05 1.06 1.07 1.07 1.07 1.09 1.06 1.03 1.00 0.96 0.92 0.88
0.30 0.43 0.47 0.51 0.70 0.52 0.27 0.19 0.33 0.46 0.29 0.22 0.17 0.17 0.19 0.20 0.19 0.16 0.15 0.18 0.22 0.25 0.32 0.41 0.48 0.52 0.52 0.56 0.65 0.74 0.79 0.83 0.81 0.80 0.79 0.77 0.72 0.67 0.67 0.70 0.71 0.69 0.68 0.67
0.35 0.45 0.49 0.52 0.58 0.47 0.35 0.38 0.42 0.34 0.28 0.21 0.18 0.17 0.17 0.17 0.16 0.14 0.12 0.12 0.13 0.14 0.18 0.23 0.32 0.38 0.38 0.39 0.44 0.49 0.48 0.45 0.44 0.43 0.45 0.44 0.42 0.40 0.41 0.44 0.48 0.50 0.52 0.53
0.32 0.28 0.36 0.44 0.43 0.34 0.31 0.31 0.30 0.28 0.28 0.24 0.21 0.20 0.18 0.19 0.18 0.16 0.13 0.12 0.11 0.11 0.13 0.14 0.16 0.19 0.21 0.21 0.23 0.25 0.24 0.21 0.22 0.26 0.29 0.33 0.34 0.36 0.37 0.39 0.43 0.46 0.49 0.50
0.29 0.28 0.35 0.40 0.33 0.28 0.25 0.24 0.25 0.23 0.22 0.20 0.19 0.18 0.19 0.19 0.19 0.18 0.16 0.15 0.14 0.14 0.14 0.15 0.17 0.18 0.19 0.19 0.19 0.19 0.20 0.18 0.19 0.21 0.24 0.28 0.32 0.37 0.38 0.39 0.43 0.49 0.51 0.59
0.26 0.34 0.45 0.45 0.32 0.35 0.30 0.22 0.20 0.20 0.19 0.20 0.21 0.21 0.21 0.20 0.22 0.20 0.19 0.19 0.18 0.18 0.17 0.17 0.18 0.21 0.24 0.26 0.27 0.26 0.25 0.24 0.23 0.24 0.25 0.30 0.33 0.37 0.40 0.42 0.43 0.48 0.51 0.56